EN

Hourly Weather Ladyn'

Today, 30 July, Friday

Time Temperature Precipitation Wind Pressure Humidity
00:00 +21°C° 0 mm 2 mps 742 mmHg 62%
01:00 +21°C° 0 mm 2 mps 742 mmHg 63%
02:00 +21°C° 0 mm 2 mps 742 mmHg 63%
03:00 +20°C° 0 mm 2 mps 742 mmHg 67%
04:00 +19°C° 0 mm 2 mps 742 mmHg 70%
05:00 +18°C° 0 mm 2 mps 742 mmHg 73%
06:00 +20°C° 0 mm 2 mps 742 mmHg 69%
07:00 +21°C° 0 mm 3 mps 742 mmHg 64%
08:00 +24°C° 0 mm 3 mps 742 mmHg 59%
09:00 +25°C° 0 mm 3 mps 742 mmHg 53%
10:00 +27°C° 0 mm 4 mps 742 mmHg 46%
11:00 +29°C° 0 mm 4 mps 742 mmHg 39%
12:00 +29°C° 0 mm 5 mps 741 mmHg 39%
13:00 +30°C° 0 mm 5 mps 741 mmHg 39%
14:00 +30°C° 0 mm 6 mps 741 mmHg 38%
15:00 +30°C° 0 mm 5 mps 741 mmHg 38%
16:00 +30°C° 0 mm 5 mps 740 mmHg 39%
17:00 +30°C° 0 mm 5 mps 740 mmHg 39%
18:00 +28°C° 0 mm 4 mps 740 mmHg 45%
19:00 +26°C° 0 mm 3 mps 740 mmHg 52%
20:00 +24°C° 0 mm 1 mps 740 mmHg 59%
21:00 +23°C° 0 mm 1 mps 740 mmHg 61%
22:00 +22°C° 0 mm 1 mps 740 mmHg 64%
23:00 +21°C° 0 mm 1 mps 741 mmHg 66%

Tomorrow, 31 July, Saturday

Time Temperature Precipitation Wind Pressure Humidity
00:00 +21°C° 0 mm 1 mps 740 mmHg 68%
01:00 +20°C° 0 mm 1 mps 740 mmHg 69%
02:00 +20°C° 0 mm 1 mps 740 mmHg 71%
03:00 +20°C° 0 mm 1 mps 740 mmHg 73%
04:00 +20°C° 0 mm 1 mps 740 mmHg 75%
05:00 +19°C° 0 mm 1 mps 740 mmHg 77%
06:00 +20°C° 0 mm 2 mps 740 mmHg 72%
07:00 +23°C° 0 mm 2 mps 740 mmHg 66%
08:00 +25°C° 0 mm 2 mps 740 mmHg 60%
09:00 +27°C° 0 mm 2 mps 740 mmHg 55%
10:00 +29°C° 0 mm 2 mps 740 mmHg 49%
11:00 +31°C° 0 mm 3 mps 740 mmHg 43%
12:00 +33°C° 0 mm 3 mps 740 mmHg 41%
13:00 +34°C° 0 mm 3 mps 739 mmHg 38%
14:00 +35°C° 0 mm 4 mps 739 mmHg 35%
15:00 +30°C° 2.7 mm 5 mps 739 mmHg 52%
16:00 +26°C° 2.7 mm 6 mps 739 mmHg 70%
17:00 +21°C° 2.7 mm 7 mps 739 mmHg 87%
18:00 +20°C° 3.9 mm 5 mps 739 mmHg 90%
19:00 +20°C° 3.9 mm 3 mps 739 mmHg 93%
20:00 +19°C° 3.9 mm 2 mps 739 mmHg 97%
21:00 +19°C° 0.3 mm 2 mps 740 mmHg 97%
22:00 +19°C° 0.3 mm 2 mps 740 mmHg 97%
23:00 +19°C° 0.3 mm 3 mps 740 mmHg 97%

Day after tomorrow, 1 August, Sunday

Time Temperature Precipitation Wind Pressure Humidity
00:00 +18°C° 0 mm 2 mps 740 mmHg 97%
01:00 +18°C° 0 mm 2 mps 740 mmHg 97%
02:00 +17°C° 0 mm 2 mps 740 mmHg 97%
03:00 +17°C° 0 mm 2 mps 740 mmHg 96%
04:00 +17°C° 0 mm 2 mps 741 mmHg 96%
05:00 +16°C° 0 mm 2 mps 741 mmHg 95%
06:00 +18°C° 0 mm 2 mps 741 mmHg 90%
07:00 +20°C° 0 mm 1 mps 741 mmHg 86%
08:00 +22°C° 0 mm 1 mps 741 mmHg 81%
09:00 +24°C° 0 mm 2 mps 741 mmHg 73%
10:00 +25°C° 0 mm 2 mps 741 mmHg 65%
11:00 +27°C° 0 mm 3 mps 741 mmHg 57%
12:00 +28°C° 0 mm 3 mps 740 mmHg 53%
13:00 +28°C° 0 mm 4 mps 740 mmHg 50%
14:00 +29°C° 0 mm 5 mps 740 mmHg 46%
15:00 +29°C° 0.1 mm 4 mps 739 mmHg 49%
16:00 +29°C° 0.1 mm 4 mps 738 mmHg 52%
17:00 +29°C° 0.1 mm 3 mps 738 mmHg 55%
18:00 +26°C° 4.4 mm 3 mps 738 mmHg 68%
19:00 +23°C° 4.4 mm 4 mps 738 mmHg 81%
20:00 +20°C° 4.4 mm 4 mps 737 mmHg 95%
21:00 +19°C° 1.9 mm 3 mps 738 mmHg 95%
22:00 +19°C° 1.9 mm 3 mps 738 mmHg 95%
23:00 +18°C° 1.9 mm 3 mps 738 mmHg 95%

2 August, Monday

Time Temperature Precipitation Wind Pressure Humidity
00:00 +18°C° 0.3 mm 3 mps 738 mmHg 96%
01:00 +17°C° 0.3 mm 4 mps 738 mmHg 96%
02:00 +16°C° 0.3 mm 5 mps 738 mmHg 97%
03:00 +15°C° 0 mm 4 mps 738 mmHg 96%
04:00 +16°C° 0 mm 3 mps 739 mmHg 95%
05:00 +16°C° 0 mm 3 mps 739 mmHg 95%
06:00 +16°C° 0 mm 3 mps 739 mmHg 93%
07:00 +16°C° 0 mm 3 mps 739 mmHg 91%
08:00 +17°C° 0 mm 3 mps 740 mmHg 89%
09:00 +16°C° 0.2 mm 3 mps 740 mmHg 90%
10:00 +16°C° 0.2 mm 3 mps 741 mmHg 92%
11:00 +14°C° 0.2 mm 3 mps 741 mmHg 93%
12:00 +16°C° 0 mm 3 mps 741 mmHg 89%
13:00 +17°C° 0 mm 3 mps 741 mmHg 85%
14:00 +18°C° 0 mm 3 mps 741 mmHg 81%
15:00 +19°C° 0 mm 4 mps 741 mmHg 74%
16:00 +21°C° 0 mm 4 mps 741 mmHg 67%
17:00 +22°C° 0 mm 5 mps 741 mmHg 61%
18:00 +21°C° 0.1 mm 4 mps 741 mmHg 68%
19:00 +19°C° 0.1 mm 3 mps 742 mmHg 76%
20:00 +18°C° 0.1 mm 3 mps 742 mmHg 83%
21:00 +18°C° 0 mm 3 mps 742 mmHg 85%
22:00 +17°C° 0 mm 3 mps 742 mmHg 87%
23:00 +17°C° 0 mm 3 mps 743 mmHg 89%

3 August, Tuesday

Time Temperature Precipitation Wind Pressure Humidity
00:00 +16°C° 0 mm 3 mps 743 mmHg 91%
01:00 +14°C° 0 mm 3 mps 743 mmHg 93%
02:00 +14°C° 0 mm 3 mps 743 mmHg 95%
03:00 +13°C° 0 mm 3 mps 744 mmHg 95%
04:00 +13°C° 0 mm 3 mps 744 mmHg 95%
05:00 +13°C° 0 mm 3 mps 744 mmHg 95%
06:00 +14°C° 0 mm 3 mps 744 mmHg 86%
07:00 +17°C° 0 mm 3 mps 745 mmHg 77%
08:00 +18°C° 0 mm 4 mps 745 mmHg 69%
09:00 +19°C° 0 mm 4 mps 745 mmHg 61%
10:00 +21°C° 0 mm 4 mps 745 mmHg 54%
11:00 +22°C° 0 mm 5 mps 746 mmHg 47%
12:00 +22°C° 0 mm 5 mps 745 mmHg 46%
13:00 +23°C° 0 mm 4 mps 745 mmHg 45%
14:00 +23°C° 0 mm 4 mps 745 mmHg 44%
15:00 +23°C° 0 mm 4 mps 745 mmHg 44%
16:00 +23°C° 0 mm 4 mps 745 mmHg 45%
17:00 +24°C° 0 mm 3 mps 745 mmHg 45%
18:00 +22°C° 0 mm 3 mps 745 mmHg 51%
19:00 +20°C° 0 mm 2 mps 745 mmHg 57%
20:00 +19°C° 0 mm 1 mps 745 mmHg 62%
21:00 +19°C° 0 mm 1 mps 745 mmHg 62%
22:00 +19°C° 0 mm 1 mps 745 mmHg 61%
23:00 +17°C° 0 mm 2 mps 745 mmHg 60%

4 August, Wednesday

Time Temperature Precipitation Wind Pressure Humidity
00:00 +17°C° 0 mm 2 mps 745 mmHg 63%
01:00 +16°C° 0 mm 2 mps 745 mmHg 66%
02:00 +15°C° 0 mm 2 mps 745 mmHg 69%
03:00 +15°C° 0 mm 2 mps 744 mmHg 71%
04:00 +15°C° 0 mm 2 mps 744 mmHg 73%
05:00 +15°C° 0 mm 2 mps 744 mmHg 75%
06:00 +15°C° 0.5 mm 2 mps 744 mmHg 79%
07:00 +16°C° 0.5 mm 2 mps 744 mmHg 82%
08:00 +18°C° 0.5 mm 1 mps 745 mmHg 86%
09:00 +17°C° 0.3 mm 2 mps 744 mmHg 85%
10:00 +18°C° 0.3 mm 3 mps 744 mmHg 83%
11:00 +19°C° 0.3 mm 3 mps 744 mmHg 82%
12:00 +20°C° 0.7 mm 3 mps 744 mmHg 79%
13:00 +21°C° 0.7 mm 3 mps 744 mmHg 75%
14:00 +22°C° 0.7 mm 3 mps 743 mmHg 72%
15:00 +21°C° 0.7 mm 3 mps 743 mmHg 72%
16:00 +21°C° 0.7 mm 3 mps 743 mmHg 73%
17:00 +21°C° 0.7 mm 3 mps 743 mmHg 73%
18:00 +20°C° 0.1 mm 3 mps 743 mmHg 77%
19:00 +19°C° 0.1 mm 2 mps 743 mmHg 81%
20:00 +18°C° 0.1 mm 2 mps 743 mmHg 85%
21:00 +18°C° 0 mm 2 mps 743 mmHg 85%
22:00 +18°C° 0 mm 2 mps 743 mmHg 85%
23:00 +17°C° 0 mm 2 mps 743 mmHg 85%
Show more